Flag for Germany

Past Weather in Waren (Müritz), Mecklenburg-Western Pomerania, Germany — Yesterday and Last 2 Weeks

Now
64 °F

Scattered clouds.


Feels Like: 64 °F
Forecast: 65 / 51 °F
Wind: 12 mph from West

Location: Laage

Current Time: Jul 7, 2020 at 2:32:27 pm

Latest Report: Jul 7, 2020 at 1:20 pm


Visibility: N/A

Pressure: 30.01 "Hg

Humidity: 46%

Dew Point: 43 °F

Location of Waren (Müritz)Location

Past Weather in Waren (Müritz) — Graph

°F

Waren (Müritz) Temperature Yesterday

Maximum temperature yesterday: 64 °F (at 6:20 pm)
Minimum temperature yesterday: 54 °F (at 12:20 pm)
Average temperature yesterday: 59 °F

High & Low Weather Summary for the Past Weeks

 TemperatureHumidityPressure
High84 °F (Jun 27, 4:20 pm)100% (Jun 29, 5:20 am)30.30 "Hg (Jun 29, 5:20 am)
Low50 °F (Jun 23, 5:20 am)33% (Jun 29, 3:46 pm)29.62 "Hg (Jul 1, 8:20 pm)
Average65 °F74%29.90 "Hg
* Reported Jun 22 1:20 pm — Jul 7 1:20 pm, Waren (Müritz). Weather by CustomWeather, © 2020

Note: Actual official high and low records may vary slightly from our data, if they occured in-between our weather recording intervals... More about our weather records

Waren (Müritz) Weather History for the Previous 24 Hours

Scroll right to see more
 ConditionsComfort  
Time TempWeatherWind HumidityBarometerVisibility
1:20 pm
Tue, Jul 7
64 °FScattered clouds.12 mph46%30.01 "HgN/A
12:20 pm61 °FScattered clouds.14 mph52%30.01 "HgN/A
11:20 am59 °FScattered clouds.15 mph59%30.01 "HgN/A
10:20 am59 °FBroken clouds.15 mph59%30.04 "HgN/A
10:04 am57 °FBroken clouds.13 mph63%30.04 "HgN/A
9:20 am57 °FBroken clouds.12 mph67%30.01 "HgN/A
8:20 am55 °FScattered clouds.13 mph72%30.01 "HgN/A
7:20 am52 °FPartly sunny.10 mph82%30.01 "HgN/A
6:20 am52 °FPartly sunny.8 mph82%30.01 "HgN/A
5:20 am52 °FPartly sunny.8 mph82%29.98 "HgN/A
4:20 am52 °FPartly cloudy.10 mph82%29.98 "HgN/A
3:20 am52 °FPassing clouds.9 mph82%29.95 "HgN/A
2:20 am52 °FPassing clouds.10 mph82%29.95 "HgN/A
1:20 am52 °FPassing clouds.9 mph82%29.95 "HgN/A
12:20 am54 °FPassing clouds.10 mph77%29.95 "HgN/A
11:20 pm
Mon, Jul 6
55 °FPassing clouds.13 mph77%29.92 "HgN/A
10:20 pm57 °FPassing clouds.14 mph77%29.89 "HgN/A
9:20 pm59 °FScattered showers. Scattered clouds.14 mph68%29.86 "HgN/A
8:20 pm61 °FScattered clouds.16 mph63%29.86 "HgN/A
7:20 pm63 °FPassing clouds.20 mph56%29.83 "HgN/A
6:20 pm64 °FScattered clouds.21 mph52%29.80 "HgN/A
5:20 pm63 °FScattered showers. Scattered clouds.18 mph64%29.80 "HgN/A
4:20 pm63 °FPassing clouds.14 mph73%29.77 "HgN/A
3:59 pm59 °FScattered showers. Scattered clouds.16 mph77%29.77 "Hg5 mi
2:20 pm61 °FScattered clouds.13 mph63%29.74 "HgN/A
2:06 pm59 °FSprinkles. Scattered clouds.13 mph77%29.74 "HgN/A
Weather by CustomWeather, © 2020

See weather overview